Location: Azul
(36.7830°S, 59.8500°W)
Time: 02:25:00
(UTC-03:00)

ITUPSAT 1 - Visible Passes

Search period start: 19 September 2024 00:00
Search period end: 29 September 2024 00:00
Orbit: 692 x 705 km, 98.5° (Epoch: 18 September)

Date Brightness Start Highest point End Pass type
(mag) Time Alt. Az. Time Alt. Az. Time Alt. Az.
25 Sep ? 22:01:02 11° S 22:01:02 11° S 22:01:08 10° S visible
26 Sep ? 22:43:00 10° SSW 22:43:00 10° SSW 22:43:03 10° SSW visible
27 Sep ? 21:46:10 11° SSE 21:46:10 11° SSE 21:46:18 10° SSE visible
28 Sep ? 22:28:07 12° S 22:28:07 12° S 22:28:30 10° S visible
